GFSSW_sfc_dewp_300.txt.gz
Dewpoint
60 60 59 59 58 59 58 58 58 59 60 60 60 60 61 61 60 56 36 48 58 74 73 64 65 67 67 65 64 63 57 48 47 50 50 53 52 54 56 56 57 57 62 63 65
60 59 59 59 58 58 58 58 58 59 59 59 60 60 61 61 53 37 52 72 75 75 66 67 66 64 61 65 64 62 57 49 50 52 52 53 52 54 55 54 56 60 63 64 64
60 59 59 58 58 58 58 58 58 58 58 59 59 60 60 60 48 32 69 74 75 73 66 68 72 64 62 62 61 61 55 48 52 53 53 53 52 54 53 54 56 60 62 63 63
59 59 59 58 57 57 57 57 57 57 58 59 59 60 61 54 44 61 75 76 75 63 62 64 65 61 57 56 56 54 53 50 53 52 51 52 54 53 54 54 56 61 62 63 63
59 59 58 57 57 57 57 57 57 57 58 58 59 60 53 40 27 69 76 75 67 60 61 56 60 63 60 57 56 54 53 48 49 49 50 52 54 53 53 55 56 56 61 62 63
59 59 57 57 57 57 57 57 57 58 58 58 59 60 47 23 54 68 67 68 66 62 61 56 57 62 62 57 58 59 56 47 51 51 53 53 53 53 53 54 54 54 55 57 61
59 58 57 56 56 56 57 57 57 58 58 58 59 56 44 33 64 66 63 63 65 67 63 59 60 61 62 57 61 59 54 48 49 50 52 55 53 52 53 52 52 53 53 54 56
57 57 57 56 57 56 56 56 57 58 58 59 60 53 33 41 64 63 63 62 63 66 65 63 62 60 61 59 59 57 55 49 50 49 50 52 52 54 54 52 52 53 53 54 57
57 56 56 56 56 55 55 56 57 58 59 60 52 46 31 63 61 62 61 59 60 61 60 63 61 60 57 55 55 56 53 52 51 52 50 52 51 54 55 54 54 54 55 54 59
56 55 55 55 55 55 55 56 56 56 57 55 48 38 38 53 58 62 62 61 59 59 56 56 60 57 57 53 48 51 54 52 51 55 52 50 50 52 53 54 54 53 58 59 59
55 55 55 55 55 54 53 42 36 33 40 25 32 38 36 39 48 57 60 59 58 52 49 47 53 52 52 51 48 51 52 52 54 56 55 53 50 50 51 51 52 52 57 59 60
55 55 55 55 54 54 51 31 33 28 17 30 28 34 33 20 38 48 51 49 50 48 46 43 41 52 54 52 50 49 52 52 57 57 56 54 49 53 54 50 51 51 54 58 59
55 55 55 54 54 51 44 35 35 25 20 14 27 21 19 26 39 46 49 49 49 48 48 43 42 44 54 53 48 49 51 54 55 59 59 57 53 52 53 53 51 51 54 56 58
55 54 54 53 47 47 41 34 29 22 14 12 12 15 14 20 18 31 45 50 50 48 48 46 45 44 52 51 49 51 52 54 56 53 49 55 46 52 52 52 52 51 53 55 56
55 55 54 54 47 39 36 37 28 17 12 19 13 13 18 18 18 17 28 49 48 46 44 42 41 45 49 49 51 50 50 55 53 53 51 52 47 48 52 51 50 52 51 55 56
55 55 54 52 50 49 47 41 19 13 11 14 12 8 10 13 16 17 14 43 44 42 34 35 35 32 36 37 47 38 50 52 53 51 46 48 46 44 48 49 50 53 51 56 57
54 54 53 51 42 44 40 24 12 10 12 10 7 8 9 13 14 15 17 16 16 22 19 24 24 25 32 32 32 35 26 23 25 41 40 47 47 46 48 51 52 55 51 54 57
53 53 53 51 48 45 31 18 21 14 12 10 8 8 9 10 12 13 17 17 19 21 19 16 15 19 28 31 30 32 29 23 21 25 29 47 44 46 52 52 55 59 62 59 61
52 52 48 47 49 43 27 18 14 17 18 11 8 7 9 10 8 10 13 16 15 18 16 13 13 15 18 18 32 32 32 31 28 34 26 43 49 53 56 57 56 57 63 64 65
50 50 44 46 46 33 26 28 22 21 19 14 14 14 12 13 14 14 10 13 12 14 15 13 10 12 13 23 29 26 29 29 27 24 22 31 47 47 52 54 59 60 61 61 63
51 45 43 38 34 27 21 23 22 21 17 15 17 13 15 14 16 13 16 16 15 11 13 12 11 6 13 14 16 18 20 28 25 26 23 28 44 57 58 59 57 58 59 59 59
51 45 43 31 26 28 20 20 27 15 16 14 16 16 15 14 16 14 16 16 17 19 15 18 8 5 7 12 17 17 16 21 21 17 25 29 48 60 59 59 58 59 59 58 57
48 46 42 26 20 23 25 23 23 15 15 15 16 19 21 18 16 21 19 17 16 16 16 19 8 6 6 7 16 17 16 22 19 21 17 24 50 59 58 58 59 58 59 58 57
50 45 44 31 27 26 22 26 26 24 19 21 22 20 20 18 19 18 19 19 18 18 53 30 13 8 6 8 19 22 22 21 19 17 24 46 53 57 55 56 57 57 57 57 56
52 46 47 43 41 41 36 28 26 24 30 30 29 29 29 35 27 25 25 23 22 41 25 14 10 24 26 24 30 31 31 26 32 32 23 52 52 54 56 55 55 56 56 54 55
49 48 49 46 44 38 34 29 29 30 30 32 30 30 29 28 28 26 26 23 25 30 30 30 18 25 16 29 31 32 34 34 32 48 52 53 53 57 56 56 55 55 55 54 53
54 53 49 46 44 46 44 45 34 33 33 30 30 30 29 28 29 27 25 28 33 31 30 32 32 29 25 33 30 32 37 35 38 46 49 46 51 55 54 54 55 55 54 53 52

GFSSW_sfc_dewp_303.txt.gz
Dewpoint
60 60 59 58 58 58 58 58 58 58 58 58 60 60 61 61 60 55 31 46 59 74 71 66 67 68 66 65 64 64 56 49 49 51 51 53 54 56 58 60 59 60 61 65 67
59 59 59 58 58 58 58 57 57 57 57 58 59 60 61 61 53 38 52 70 74 74 68 67 66 67 63 64 65 62 56 50 52 53 52 53 54 55 57 57 60 61 63 66 66
59 59 58 58 58 57 57 57 57 57 57 58 59 60 61 60 46 34 72 75 73 74 62 68 68 62 61 63 62 60 57 53 54 53 53 53 54 55 55 57 60 61 63 64 65
59 59 58 58 57 57 57 57 57 57 57 58 59 59 60 55 49 63 75 74 74 67 62 66 66 60 59 59 58 56 55 53 55 55 52 54 55 54 55 56 61 63 63 64 64
58 58 58 57 57 57 57 57 56 57 57 58 59 59 53 36 25 73 76 74 68 64 64 65 63 62 60 59 57 57 56 53 54 53 53 54 55 54 55 59 62 63 63 63 63
57 57 57 56 56 56 56 56 56 56 58 58 59 59 46 26 60 72 68 66 61 60 58 63 63 63 61 58 58 59 58 50 54 52 54 54 54 54 55 59 61 62 62 63 63
57 56 56 56 56 56 56 56 56 57 58 58 59 56 40 25 66 66 67 65 65 61 59 60 62 62 61 57 59 58 49 52 52 55 53 53 52 53 55 57 59 61 61 62 63
56 56 55 56 56 56 56 55 56 58 58 59 59 55 23 44 65 63 62 63 65 67 63 63 62 59 60 59 58 55 54 47 52 54 55 54 51 53 54 54 55 56 59 60 61
56 55 55 55 55 55 55 55 57 58 59 60 49 43 27 64 60 62 62 61 62 63 63 61 61 59 56 56 53 55 51 51 50 53 51 54 53 52 53 52 52 53 53 54 56
55 55 55 55 55 54 54 55 58 58 58 56 50 38 38 57 61 61 62 61 59 59 59 59 59 54 55 53 47 51 53 52 52 56 53 52 53 52 52 52 51 52 53 53 57
55 55 55 55 55 54 52 45 33 28 47 14 23 38 38 40 59 61 61 60 60 57 53 55 53 51 49 51 50 51 53 54 54 56 53 53 52 53 53 53 53 54 54 54 57
55 55 55 54 54 53 51 29 29 30 23 27 31 35 36 25 25 50 59 55 56 54 52 45 44 48 52 52 50 51 53 55 56 57 55 54 52 53 54 54 54 53 57 58 57
56 56 54 54 54 50 40 32 33 36 18 15 27 23 20 17 14 20 52 49 49 49 46 43 44 45 51 51 49 50 50 54 52 57 58 56 51 52 53 54 52 52 57 58 59
56 55 54 54 45 46 39 44 40 23 13 13 12 17 16 26 29 41 49 49 49 48 49 48 49 47 49 51 49 48 51 52 56 54 50 54 47 51 51 52 53 51 53 57 59
56 55 54 53 45 39 34 45 42 16 11 18 12 14 15 20 21 18 42 50 48 48 47 46 42 41 51 51 50 48 52 53 56 52 50 53 48 50 52 50 51 52 51 56 58
55 54 53 51 49 49 49 38 18 11 12 15 12 9 15 14 19 17 17 45 44 47 37 43 38 36 45 49 50 49 53 52 53 51 47 48 48 47 49 49 50 52 51 55 57
54 53 52 51 35 45 39 20 10 9 12 12 9 9 13 12 13 15 14 30 32 37 31 23 21 22 28 32 50 50 47 39 43 46 44 46 48 47 47 49 50 52 52 54 56
53 53 52 51 48 44 24 16 21 8 14 13 9 9 9 13 14 16 14 13 20 20 19 17 17 18 27 28 32 49 37 26 23 36 35 48 46 44 55 53 57 62 59 54 56
52 51 49 47 51 41 22 14 4 14 18 16 11 8 11 13 11 11 14 14 16 20 16 16 14 16 18 18 20 18 29 29 27 32 36 44 47 54 57 59 61 62 63 64 65
50 50 45 47 42 29 23 25 20 19 20 15 14 14 12 14 12 12 13 14 15 16 17 20 10 11 13 16 25 27 31 27 28 25 24 27 47 45 54 56 58 59 60 60 61
50 37 40 45 31 24 20 22 22 22 20 16 14 13 12 13 13 11 16 15 16 15 14 14 12 11 11 9 9 14 24 25 26 25 23 29 44 58 55 56 57 58 57 57 58
47 39 47 31 25 27 19 22 26 16 17 15 14 14 13 17 15 14 16 15 17 18 16 19 10 10 9 10 13 15 14 22 20 18 25 30 39 58 58 57 57 57 58 58 58
47 48 49 26 20 20 23 21 23 21 17 14 17 20 21 17 15 19 21 19 18 18 28 23 9 5 4 6 13 20 22 19 19 19 21 30 38 58 58 58 58 58 58 58 58
49 42 45 41 29 39 37 29 27 27 29 24 25 25 26 25 21 21 20 22 23 29 56 30 13 7 5 7 21 28 30 23 15 16 20 29 50 56 57 57 56 58 57 56 56
48 45 47 42 42 43 39 34 31 26 30 30 29 29 29 28 26 26 28 25 24 41 29 13 12 27 23 33 34 35 34 41 42 38 27 31 50 54 55 55 54 55 55 55 55
51 49 51 46 46 44 44 42 41 31 31 32 30 31 28 26 27 26 27 24 22 27 38 28 17 20 27 33 34 35 37 39 42 53 53 52 53 56 56 55 56 56 55 55 55
51 51 50 45 47 46 46 47 45 37 33 31 31 31 30 30 29 28 27 27 33 33 28 28 32 25 22 33 32 33 34 38 46 50 53 47 52 55 56 56 55 55 56 55 54

GFSSW_sfc_dewp_306.txt.gz
Dewpoint
60 59 58 58 58 57 57 57 57 57 57 58 58 60 60 61 60 54 27 44 66 75 73 67 68 68 67 64 64 64 54 49 51 51 52 55 55 57 60 59 60 61 61 65 68
59 59 58 58 57 57 57 57 57 57 57 57 58 60 60 60 53 39 53 71 72 73 65 66 67 67 64 64 65 61 55 49 52 53 53 54 55 57 58 59 60 63 65 68 68
58 58 58 57 57 57 57 57 57 57 57 58 58 59 60 60 46 35 70 73 74 74 67 66 65 62 62 63 63 61 57 55 54 54 54 54 55 57 58 58 59 62 65 66 67
57 57 57 57 57 57 57 56 56 56 56 57 59 59 60 56 49 64 75 74 74 70 66 66 62 60 58 58 60 56 57 56 56 54 54 54 55 55 55 57 61 64 66 65 65
57 57 57 56 56 56 56 56 56 56 56 58 59 59 54 37 25 71 76 74 71 61 62 65 60 61 60 59 58 57 58 55 55 54 55 55 55 55 57 60 63 64 65 65 65
56 56 56 56 56 56 56 56 56 56 56 58 59 59 46 28 61 72 69 68 63 63 63 65 63 63 60 58 57 58 57 53 55 54 54 55 55 55 59 62 62 63 64 64 64
56 56 55 55 56 55 56 55 55 56 57 58 59 57 38 28 65 69 66 63 61 59 58 62 63 61 61 56 59 57 51 52 55 55 54 53 52 53 60 62 62 62 63 63 63
55 55 55 55 55 55 55 55 55 57 58 58 59 55 24 50 66 66 64 65 65 66 62 63 62 58 60 59 57 54 53 47 53 54 55 53 50 55 60 60 60 61 62 62 63
55 55 55 55 55 55 54 55 56 58 58 60 48 41 31 64 61 62 63 64 64 64 63 61 61 57 57 55 52 54 49 50 51 56 53 52 52 54 56 58 59 60 61 61 62
55 55 55 55 54 54 54 55 59 57 58 56 51 38 42 56 60 61 62 63 61 61 60 59 58 53 55 53 48 50 50 51 49 54 52 52 53 52 53 54 55 56 58 59 60
56 56 55 54 54 53 52 47 27 24 45 9 21 37 38 46 62 60 61 61 59 57 55 57 54 50 49 51 51 52 50 52 54 57 54 53 52 51 52 52 52 52 53 54 54
56 56 55 54 54 53 49 29 26 31 25 27 31 32 35 31 43 58 61 57 57 55 50 50 51 53 51 51 49 51 52 52 55 57 55 54 51 53 52 52 52 52 53 53 54
56 55 54 54 54 49 40 30 33 36 22 16 27 24 20 26 16 31 59 55 53 52 51 49 49 48 50 50 48 51 51 51 51 58 58 54 51 52 53 53 53 54 55 55 55
56 54 54 53 44 44 38 43 44 29 13 13 11 16 19 19 22 27 58 49 48 48 49 47 48 47 50 50 49 47 51 53 55 52 49 54 47 50 52 53 53 54 53 56 58
55 54 53 53 43 38 35 46 31 16 10 16 10 16 16 31 29 37 50 50 48 48 48 47 46 43 50 50 50 48 51 54 54 51 50 51 49 49 52 51 51 53 53 56 58
55 53 53 51 48 47 46 37 16 8 11 14 11 10 14 16 18 16 39 47 46 48 45 46 42 36 35 51 51 54 53 52 52 50 46 47 48 44 48 50 51 52 53 53 57
53 53 52 50 31 45 37 16 2 7 11 12 10 10 15 15 16 19 17 24 29 35 36 35 25 26 29 46 51 53 48 47 44 44 44 46 47 46 51 53 51 52 52 53 56
52 53 52 51 49 43 21 13 17 2 13 15 9 9 12 12 14 15 14 14 23 29 23 25 17 19 22 35 48 51 41 42 37 40 41 49 46 46 58 61 62 58 55 53 55
52 51 48 48 51 40 19 9 -4 10 17 17 12 8 11 13 10 13 13 13 14 20 20 22 17 17 17 24 48 46 45 36 27 31 39 44 47 53 58 58 60 61 62 63 63
50 48 42 46 43 27 18 21 16 17 20 15 13 14 10 15 11 12 12 15 16 18 19 17 12 11 12 16 25 30 33 27 29 26 26 27 42 44 53 56 57 57 57 59 59
48 31 40 40 30 23 13 18 22 23 22 17 15 12 13 13 12 11 14 15 17 16 16 20 18 13 11 9 8 21 27 27 27 28 26 26 37 56 55 56 56 57 58 59 59
44 32 45 30 25 26 19 21 28 18 18 17 13 13 13 15 14 13 14 14 18 17 14 18 12 11 10 12 15 15 15 24 23 19 25 29 34 58 57 58 57 58 59 60 61
48 48 49 27 28 27 33 29 23 22 16 13 17 18 19 16 13 19 19 19 21 20 28 13 9 5 5 8 15 21 26 19 19 20 25 24 30 58 58 58 59 58 59 59 58
47 40 45 41 36 40 39 31 31 28 30 29 28 28 27 26 26 22 24 24 25 27 54 30 11 8 4 7 20 29 33 27 18 16 17 23 41 55 56 57 58 57 56 57 57
48 45 47 41 42 44 40 38 40 27 30 30 28 29 28 27 28 27 27 26 25 42 30 12 13 26 33 34 36 37 38 49 35 33 20 28 46 53 56 58 56 55 55 55 56
49 47 50 45 45 45 44 45 44 38 31 30 28 29 29 26 26 26 26 25 24 24 37 27 23 33 32 34 35 37 37 41 46 52 51 50 50 55 57 55 54 54 55 55 55
50 50 50 44 46 44 46 47 46 45 35 34 32 31 30 30 29 29 27 30 32 34 26 28 28 24 30 32 31 28 36 42 47 51 52 46 51 56 55 55 55 54 55 55 55

GFSSW_sfc_dewp_312.txt.gz
Dewpoint
58 58 58 57 57 58 57 57 57 57 58 58 59 59 60 61 60 47 34 53 62 75 73 66 67 66 64 63 63 61 51 49 49 50 52 54 54 56 57 56 56 56 56 57 61
57 57 57 57 57 57 57 57 57 57 57 57 58 59 60 61 41 32 58 71 73 75 65 66 65 65 61 61 62 58 49 48 51 52 53 54 54 55 54 55 55 57 57 59 61
57 57 57 57 57 57 57 57 57 57 57 57 57 59 60 59 37 44 70 74 74 72 66 66 67 63 57 59 58 56 50 54 52 52 54 53 54 54 53 53 55 56 58 60 61
57 57 57 57 57 56 57 57 57 57 56 56 57 59 60 49 44 44 72 75 75 66 64 63 61 58 54 53 56 51 53 53 53 53 53 54 55 52 52 53 57 58 59 59 59
56 56 56 56 56 56 56 56 56 56 56 56 57 59 54 39 41 58 75 73 66 64 63 60 59 56 53 54 55 52 52 53 54 53 53 55 53 53 56 56 57 58 60 59 58
56 56 56 56 56 55 56 56 56 55 55 56 58 59 43 37 53 53 61 64 65 64 59 63 59 57 55 54 54 54 52 53 55 54 54 54 54 55 57 57 57 59 59 59 57
56 56 56 56 56 56 55 55 55 56 56 58 59 55 36 43 57 54 65 64 65 62 58 61 60 58 56 53 56 52 51 53 54 55 53 53 52 53 58 58 59 59 60 59 58
57 57 56 56 55 55 55 55 56 57 58 59 59 49 38 60 58 59 61 61 63 62 61 61 60 57 57 55 53 50 48 46 53 53 53 52 49 55 58 57 58 58 59 60 59
57 57 55 55 55 55 55 55 57 58 59 59 51 42 50 62 57 59 56 59 62 63 60 59 59 53 54 50 49 49 44 46 50 52 53 52 50 55 58 57 57 58 59 59 60
57 56 55 55 55 55 55 55 59 58 55 52 45 42 55 54 55 54 58 60 61 60 59 58 57 52 52 49 46 45 45 45 46 50 51 51 50 52 57 56 57 56 57 58 59
56 56 56 54 54 54 51 48 37 31 30 21 31 43 52 57 57 57 61 60 60 59 52 57 50 46 46 50 46 46 46 46 47 52 50 49 49 50 54 55 55 55 56 57 58
56 56 54 54 54 54 50 31 31 32 18 24 23 37 55 57 55 57 60 59 57 52 53 52 47 46 47 48 46 46 46 46 50 53 51 49 50 50 52 54 54 54 54 55 56
55 55 54 53 54 50 35 31 34 36 19 17 22 34 49 50 54 56 59 57 55 52 50 48 46 49 48 46 46 45 44 46 47 53 54 53 50 49 52 53 54 53 54 54 54
55 55 54 53 48 39 36 40 40 37 12 13 19 25 26 37 41 57 58 55 52 51 50 48 48 47 42 41 41 42 46 46 46 48 44 51 43 52 50 52 53 53 53 53 53
55 55 53 52 42 35 40 39 33 24 5 9 17 19 22 36 35 42 55 53 50 48 49 46 45 44 43 38 41 46 49 49 49 46 46 47 43 45 51 50 51 52 53 53 53
54 53 53 49 47 41 40 30 22 15 14 6 14 17 21 27 29 41 50 52 50 49 48 48 49 46 42 45 44 49 48 48 48 43 39 42 40 36 41 48 49 52 53 54 55
53 53 52 47 31 41 37 23 9 8 14 9 18 20 27 25 23 37 43 48 44 45 45 45 43 42 42 44 48 47 42 38 37 37 35 45 39 39 41 48 55 56 56 56 56
53 53 51 47 46 43 27 17 11 7 13 14 12 20 19 19 22 22 37 43 46 44 37 33 33 37 33 41 42 45 40 36 36 32 31 44 34 37 49 56 58 59 59 58 56
52 48 43 42 44 43 23 10 8 17 17 15 10 17 17 15 18 23 22 28 36 38 39 34 29 30 21 24 30 35 43 39 34 35 31 30 31 35 42 50 56 57 59 59 62
50 38 40 42 40 30 22 21 16 16 18 16 12 13 14 13 14 19 21 19 17 19 25 27 23 21 16 19 31 29 37 33 33 33 32 30 29 28 36 46 55 58 59 60 61
47 33 43 41 33 26 18 17 15 18 21 17 15 14 13 13 14 14 15 16 15 16 18 16 18 17 18 17 15 25 20 21 18 19 22 20 20 42 43 52 55 58 59 61 61
41 29 44 35 24 28 20 25 30 19 21 18 17 15 15 15 15 15 15 16 20 18 17 19 12 15 13 15 16 14 14 14 15 23 20 22 21 52 55 57 58 59 61 61 62
41 37 46 43 28 30 35 30 26 22 21 16 16 18 19 19 20 17 16 19 21 20 22 19 15 14 15 12 16 15 15 15 13 14 21 15 18 53 56 57 59 60 59 60 60
47 34 36 43 47 40 36 34 29 29 25 25 22 22 22 21 25 22 19 22 23 22 52 34 14 18 14 18 22 21 19 22 17 14 15 13 20 51 53 55 59 58 59 59 60
48 43 47 36 38 43 42 40 31 27 29 29 27 23 23 25 25 24 24 24 24 41 31 25 25 24 19 17 19 24 24 24 25 20 19 18 27 45 51 54 58 58 58 58 58
45 48 45 44 47 44 43 40 36 34 35 27 27 25 27 27 29 30 30 30 31 31 30 27 29 29 25 19 26 24 28 35 36 30 36 29 35 53 55 58 59 58 58 58 59
52 53 47 42 41 42 43 43 40 42 35 34 32 30 29 32 34 32 30 30 30 32 31 31 30 31 26 23 30 28 30 35 38 43 41 33 50 55 56 57 58 58 59 58 59

GFSSW_sfc_dewp_318.txt.gz
Dewpoint
58 58 58 58 58 58 58 58 58 58 58 59 59 59 60 61 60 43 40 56 63 74 74 65 64 64 63 61 60 66 58 52 50 51 49 50 50 52 52 50 50 54 57 57 57
58 58 57 57 58 57 57 58 58 58 58 58 58 59 59 61 44 41 63 73 73 75 65 62 61 63 62 59 59 62 56 52 51 53 49 51 50 51 50 50 52 54 56 57 57
57 57 57 57 57 57 57 58 58 58 58 58 58 59 59 59 41 43 74 74 74 72 64 62 63 63 59 61 62 61 57 52 52 53 50 51 49 50 49 50 52 54 56 56 56
57 57 57 57 57 57 57 57 57 57 58 58 58 58 60 47 43 48 74 73 75 65 64 60 58 63 58 56 60 53 54 48 51 50 49 51 49 50 52 51 52 55 56 55 55
58 58 57 57 57 57 57 57 57 57 57 57 58 58 51 38 45 54 75 71 61 63 63 58 59 58 61 55 58 52 47 49 49 50 50 50 49 50 51 52 53 54 55 55 54
58 57 57 57 56 57 57 57 57 57 58 58 58 59 40 40 50 56 60 60 61 62 58 59 59 57 59 49 57 52 47 48 50 49 50 50 50 51 51 52 54 54 55 54 54
58 57 56 56 56 57 56 57 57 57 58 58 59 54 43 42 51 57 59 59 59 60 55 56 58 56 57 51 52 51 44 48 49 50 49 49 48 52 52 52 53 54 55 55 55
57 56 56 56 56 56 56 56 57 57 58 59 59 48 43 50 53 56 58 58 60 59 58 59 57 55 56 56 50 45 50 50 48 48 50 52 52 54 52 52 53 54 55 55 54
56 56 56 56 56 56 56 56 57 59 59 59 50 42 43 60 52 54 57 57 58 58 59 57 56 55 54 49 48 52 51 49 48 46 52 54 54 54 55 52 52 53 54 54 55
56 56 56 55 56 56 56 56 58 57 53 49 42 40 43 50 52 54 56 56 56 56 55 54 53 52 49 50 50 52 46 47 51 44 48 47 54 54 55 50 52 52 54 54 54
57 56 55 55 56 55 52 45 34 35 32 36 35 39 49 52 54 55 53 56 55 54 58 52 50 49 48 52 53 50 48 47 46 48 44 48 46 55 55 56 48 50 52 53 54
56 56 55 56 55 55 51 43 27 25 35 30 31 42 53 54 53 53 53 53 53 55 60 51 52 52 49 50 47 46 49 49 46 49 43 45 45 52 53 54 49 49 51 52 52
55 55 56 55 55 49 36 35 25 25 28 33 31 42 52 52 50 50 53 54 56 53 52 54 55 52 48 45 44 54 50 50 45 45 50 51 49 52 53 52 51 53 52 52 52
55 55 55 54 45 34 32 29 23 23 25 27 32 38 53 52 50 52 54 54 58 53 60 54 50 47 42 42 46 47 48 50 49 42 47 53 46 53 55 52 49 50 51 52 52
55 55 55 53 49 32 29 24 19 21 19 25 32 42 52 51 49 51 52 51 51 54 55 55 49 47 43 42 41 47 48 49 49 47 41 47 44 56 58 55 56 50 50 51 53
54 54 54 49 45 40 30 23 18 16 15 15 30 32 38 48 40 45 52 52 53 51 49 47 47 46 45 44 41 43 46 46 44 39 39 48 44 49 52 54 52 49 51 50 52
54 54 52 49 28 27 26 21 14 12 17 9 16 22 30 39 39 34 44 50 47 47 44 44 44 44 47 43 41 41 39 35 41 45 43 49 47 48 56 54 50 48 47 51 53
52 53 49 42 38 31 27 20 20 9 9 10 5 8 25 27 31 33 30 38 43 42 39 41 38 41 44 52 51 43 39 35 36 28 44 50 46 44 52 54 49 53 54 55 54
52 49 41 32 31 31 27 15 16 13 11 9 5 11 19 20 27 26 25 23 33 36 38 42 39 48 42 48 47 33 29 29 27 29 27 42 45 47 52 58 56 55 56 58 63
50 46 32 28 27 22 23 25 17 12 11 10 10 9 9 16 19 20 16 19 19 20 40 47 42 37 37 33 24 19 21 20 22 32 31 29 33 41 49 54 53 58 59 61 64
46 40 30 29 26 24 22 22 18 12 14 12 14 14 13 13 14 14 14 12 14 18 17 17 20 18 18 21 17 17 15 19 14 15 22 20 21 36 50 50 52 54 61 62 63
47 36 30 27 25 27 25 25 28 16 16 14 15 15 16 15 14 14 13 15 15 16 15 15 12 15 12 14 15 14 16 14 15 23 17 17 26 46 50 58 57 59 61 61 62
49 33 30 27 30 29 24 26 21 17 16 18 17 16 17 18 20 18 16 16 17 17 26 20 19 15 16 11 13 19 16 14 13 13 21 13 23 52 57 59 58 60 61 61 63
50 34 33 33 34 34 33 31 28 24 19 19 20 20 20 20 21 20 19 17 16 17 51 35 15 17 11 18 17 18 18 18 17 19 19 17 37 50 54 55 58 59 60 61 62
47 40 40 36 36 36 35 34 30 28 26 21 25 21 21 23 22 22 22 22 18 42 27 22 23 22 21 20 20 20 19 19 20 19 17 20 21 41 53 57 58 59 61 61 62
45 43 44 36 37 37 36 34 32 31 31 30 27 24 25 26 27 26 26 29 30 30 30 29 32 31 28 25 25 23 22 23 22 22 22 23 25 50 57 58 59 59 60 61 61
48 48 45 40 33 34 37 41 38 37 36 34 30 30 30 36 34 32 30 29 28 29 29 29 30 32 29 28 29 28 29 28 29 25 24 23 37 55 51 53 59 58 58 58 58

GFSSW_sfc_dewp_324.txt.gz
Dewpoint
57 57 58 57 57 57 57 58 58 59 59 59 59 60 60 60 60 53 34 47 54 74 74 64 64 67 68 66 65 65 59 56 53 52 52 52 53 52 56 57 57 58 58 57 63
58 58 58 58 58 57 57 58 58 59 59 59 59 60 60 60 52 34 53 71 75 75 64 65 66 65 67 63 66 64 58 55 55 57 53 50 50 49 55 57 57 57 57 58 60
57 57 57 57 57 57 57 57 58 58 58 59 59 59 60 59 47 42 68 74 74 74 63 66 62 60 65 61 60 62 58 56 54 56 54 49 49 51 56 55 56 56 56 57 58
57 57 57 57 57 57 57 58 58 58 58 58 59 59 60 54 43 49 75 74 75 67 64 64 63 62 62 60 60 57 57 56 55 55 52 51 51 50 55 56 56 56 57 57 57
58 57 57 56 56 57 57 58 58 58 58 58 59 60 55 40 34 62 75 73 67 64 62 62 60 62 58 58 58 56 55 53 53 53 51 53 55 53 55 56 56 56 57 57 57
57 56 56 56 56 56 56 57 57 58 58 58 59 60 45 36 48 63 62 64 61 62 64 64 59 62 60 56 56 55 55 52 54 52 52 53 54 55 56 56 55 56 56 56 57
57 56 56 56 56 56 57 57 57 57 58 58 59 55 45 37 53 61 61 59 61 63 62 63 61 60 60 57 55 53 50 51 51 52 53 54 53 53 55 55 54 55 55 56 56
57 56 56 56 55 56 57 57 57 57 58 59 59 54 37 43 56 58 60 59 60 60 62 60 64 61 62 58 55 52 52 50 50 51 53 53 51 55 55 55 54 54 54 55 55
56 56 55 55 55 56 57 56 57 58 60 60 51 47 33 56 55 58 59 58 58 60 59 58 60 58 60 57 55 53 51 52 49 51 53 52 51 52 54 54 54 54 54 54 55
55 55 55 55 55 56 56 56 56 56 55 55 46 38 41 48 53 56 58 58 57 57 58 59 59 57 60 58 51 50 47 49 50 50 51 54 49 50 52 55 53 53 54 54 54
55 55 55 54 56 56 52 47 32 36 43 35 34 39 40 42 52 52 54 56 58 58 55 60 51 52 57 57 56 50 48 50 50 52 52 52 54 53 59 59 58 58 54 54 54
55 55 54 55 55 55 50 46 32 31 30 38 31 35 33 43 50 51 55 57 55 51 56 55 48 54 54 54 54 51 50 49 52 55 53 55 55 57 59 58 60 61 60 59 58
54 54 54 55 55 49 42 38 39 30 24 27 35 33 45 51 51 51 57 58 58 56 56 53 53 54 52 52 53 53 51 48 48 53 56 55 54 56 57 60 62 62 62 61 62
54 55 53 54 43 42 34 29 30 30 22 23 33 33 52 53 51 54 59 59 58 54 56 54 53 52 53 51 51 52 53 51 48 50 49 55 48 55 56 57 60 61 61 60 62
55 54 53 53 49 40 39 38 36 23 20 30 32 40 52 51 51 51 60 59 55 53 55 50 48 54 52 53 55 52 52 49 48 49 52 52 49 51 56 54 57 59 59 62 63
55 54 53 51 49 41 38 37 19 17 17 29 31 47 50 50 51 51 54 57 59 56 59 56 53 53 52 51 54 54 51 51 51 52 46 49 49 46 49 52 54 58 61 63 65
54 53 52 49 40 42 36 26 16 13 20 28 32 40 46 49 49 49 50 51 50 50 51 53 52 49 49 51 50 51 51 45 42 43 43 50 47 44 53 55 56 60 57 62 62
53 51 51 47 45 38 32 23 21 20 15 16 30 32 32 32 38 44 49 49 50 50 47 46 43 45 49 48 46 45 48 42 37 36 38 50 46 47 55 52 57 57 58 58 62
52 49 45 46 46 34 30 22 18 21 13 12 11 14 18 24 28 38 44 48 43 48 47 43 40 47 48 51 43 44 42 42 36 25 41 45 48 55 57 52 53 58 59 55 56
48 45 44 44 31 30 26 28 23 19 14 13 13 18 17 17 18 27 30 29 31 27 33 39 35 40 40 44 45 41 40 29 19 18 13 33 41 41 53 52 53 52 63 64 64
49 43 45 44 29 28 20 22 24 18 16 15 17 17 17 20 19 17 18 17 17 24 39 44 24 15 19 35 26 21 38 31 22 18 15 17 32 49 51 49 50 61 62 63 64
51 44 36 30 24 29 24 25 31 21 20 18 18 18 21 19 19 18 21 21 19 24 22 28 15 19 18 20 17 19 20 19 19 17 19 22 43 53 50 48 60 60 60 62 63
46 49 33 28 23 28 32 34 26 22 22 23 21 26 24 20 19 24 22 19 21 22 17 22 15 13 13 14 16 21 23 21 20 21 21 35 40 52 52 56 60 59 59 60 62
51 44 41 32 32 39 34 34 32 31 26 24 24 23 22 20 22 23 23 26 24 24 51 33 17 14 14 15 18 21 25 24 23 20 20 32 52 51 50 58 58 58 59 61 62
50 45 44 39 37 38 44 34 32 31 34 34 31 36 29 31 32 33 32 31 30 45 28 21 20 32 24 27 29 29 30 30 26 23 20 26 50 53 53 58 58 59 60 60 61
46 46 47 47 42 36 36 33 38 37 36 35 37 37 36 37 35 34 33 35 31 30 37 30 26 39 28 31 30 30 30 31 31 31 35 53 52 56 59 58 58 59 60 60 61
52 51 49 47 43 38 35 36 34 35 36 36 36 38 38 39 39 39 35 33 31 39 29 28 29 30 27 30 30 27 28 29 32 46 45 40 52 58 58 58 58 59 60 60 61

GFSSW_sfc_dewp_327.txt.gz
Dewpoint
58 58 57 57 57 58 57 57 58 58 59 59 60 60 60 60 60 53 31 48 52 74 74 66 67 68 68 65 66 65 58 55 54 55 54 57 54 58 58 57 58 59 60 62 66
58 57 57 57 57 57 57 57 57 58 59 59 59 60 60 60 52 37 51 67 70 75 65 66 65 68 66 64 66 62 56 55 56 57 52 54 53 55 57 56 57 57 59 64 66
58 57 57 57 57 57 57 58 58 58 59 59 59 60 60 59 46 44 67 73 75 73 64 66 63 64 65 61 60 62 56 57 57 57 53 51 51 56 56 56 57 56 59 64 66
57 57 56 56 56 57 56 57 57 58 58 59 59 60 60 54 43 49 73 75 75 68 64 64 64 62 62 60 60 55 58 57 60 58 55 51 52 56 57 56 57 57 59 63 64
57 56 56 56 56 56 56 56 57 58 58 58 59 60 55 41 37 69 75 74 66 64 62 61 61 62 58 58 60 57 56 56 59 58 56 54 56 55 57 57 57 57 57 61 64
57 56 56 56 56 56 55 56 57 57 58 58 59 60 44 42 50 68 65 63 62 64 64 64 61 62 60 58 58 55 55 54 57 54 53 53 55 56 57 57 56 56 56 57 59
56 56 56 55 56 55 55 56 57 57 58 58 59 56 42 38 55 61 61 59 60 62 62 63 63 61 59 57 56 55 53 52 52 55 53 53 53 55 56 56 55 56 56 57 57
55 56 55 55 55 55 55 57 57 57 58 59 59 54 34 41 57 60 60 59 60 61 62 61 63 61 61 59 56 54 54 49 52 53 53 53 49 55 56 55 55 55 56 56 57
55 55 55 55 55 55 56 56 57 57 59 59 50 43 33 59 54 57 60 58 58 59 60 60 62 61 59 57 55 54 51 52 51 55 54 54 52 55 55 54 54 55 55 55 55
54 55 54 55 54 56 56 55 58 55 56 55 49 39 40 47 53 57 59 59 58 58 58 58 58 56 57 55 50 52 49 49 50 51 53 54 51 54 55 54 54 54 54 54 55
54 54 55 55 54 56 51 43 27 32 42 33 34 41 40 43 53 54 58 58 58 54 53 58 52 53 55 52 54 55 53 49 51 53 53 55 54 55 57 55 55 55 54 54 54
54 54 54 54 55 54 49 38 28 33 31 35 34 36 37 36 50 51 57 56 55 52 56 52 50 54 56 55 54 54 53 49 52 54 54 55 54 56 58 57 57 57 59 56 55
54 54 53 53 54 49 39 33 38 26 25 25 33 31 39 36 47 50 57 59 58 52 54 51 51 54 54 53 53 52 51 48 50 53 55 56 51 55 58 60 62 61 62 62 58
54 54 53 53 43 40 37 30 33 28 21 22 33 34 50 51 51 55 58 57 58 53 55 52 53 54 51 51 53 51 53 51 49 51 48 55 46 52 55 56 58 61 63 62 62
54 54 52 53 46 40 37 36 33 22 23 29 33 44 52 51 52 53 60 56 51 52 53 52 54 54 53 52 55 52 54 50 48 49 52 53 49 50 55 52 55 58 61 61 62
53 54 52 50 48 39 41 37 19 17 22 31 33 50 50 50 50 54 56 58 57 54 58 54 54 55 54 54 55 53 52 52 51 52 47 49 49 45 49 52 54 60 61 63 65
53 53 52 49 34 41 34 23 14 13 19 27 31 48 50 49 49 50 52 52 51 49 48 52 54 55 52 50 52 51 50 44 41 44 43 49 46 43 51 55 55 59 60 62 62
53 52 51 49 44 38 28 21 15 18 18 21 33 38 45 44 44 49 50 49 51 51 47 46 44 45 49 47 49 47 46 40 36 38 37 49 44 44 54 55 59 57 61 61 61
51 48 44 42 46 35 28 18 16 20 14 13 15 28 20 20 29 42 49 48 49 50 47 46 45 46 48 50 41 44 42 42 38 35 40 43 46 54 51 55 58 58 56 57 64
46 42 43 42 35 26 23 26 24 22 15 13 12 15 14 16 18 26 39 39 47 46 49 44 37 40 42 44 43 43 40 35 31 22 15 22 42 42 52 50 54 60 56 62 63
47 41 43 32 28 25 16 19 22 23 19 17 13 13 17 18 19 18 19 18 19 31 40 35 20 16 29 37 21 23 23 27 27 20 21 18 22 49 53 50 51 60 63 64 63
48 37 39 29 23 28 22 24 30 23 21 18 16 17 20 20 20 20 20 19 18 21 18 26 15 17 16 20 20 23 24 19 19 17 20 21 32 51 50 53 58 60 62 64 64
43 47 42 27 22 25 30 33 29 22 23 23 21 24 25 21 25 23 25 26 22 20 20 17 15 15 17 19 16 20 23 30 20 21 19 24 31 50 58 59 59 60 61 62 63
50 35 41 30 31 35 32 33 32 33 30 23 35 29 25 27 28 31 31 31 30 29 53 33 16 17 18 18 17 24 29 26 22 21 22 25 34 49 55 57 58 59 60 62 62
47 45 47 37 37 40 42 34 36 34 35 36 37 35 30 38 33 33 33 32 31 42 30 22 24 21 22 21 24 27 29 30 30 28 24 27 36 45 51 57 57 58 60 61 61
46 45 46 46 46 40 37 36 33 34 35 36 35 37 36 40 35 34 34 39 31 31 35 29 26 38 28 28 30 29 29 29 29 30 26 37 42 55 58 58 58 58 59 59 60
51 50 49 46 43 40 40 35 34 36 36 36 36 37 38 37 37 37 35 36 33 34 30 28 28 29 29 30 30 27 27 28 30 46 48 44 46 57 57 58 58 59 59 59 60

GFSSW_sfc_dewp_333.txt.gz
Dewpoint
57 57 57 56 56 57 56 57 57 57 58 59 60 60 61 61 60 48 35 51 52 73 71 63 66 67 67 64 64 65 58 53 53 53 54 55 55 58 58 55 57 60 58 61 67
57 57 56 56 56 56 56 56 57 57 58 59 60 60 61 61 48 35 57 71 73 75 65 66 66 66 64 61 63 60 57 53 55 55 54 55 55 57 54 56 57 61 63 66 67
56 56 56 56 56 56 56 56 57 57 57 59 59 60 61 59 42 45 72 72 74 73 65 66 67 65 60 59 59 58 54 56 56 55 55 55 55 57 55 56 57 59 63 65 66
56 56 56 56 56 56 56 56 56 57 57 59 59 60 61 52 44 48 71 73 74 66 65 62 64 59 59 58 59 53 56 56 55 54 54 55 56 55 55 56 58 59 63 64 65
56 55 56 56 56 55 55 55 55 56 58 59 59 60 54 40 43 67 75 74 66 62 63 61 60 60 56 58 59 54 53 55 55 54 54 54 56 55 56 58 58 62 64 64 64
55 55 55 55 55 55 55 55 55 57 58 59 59 60 40 42 55 63 64 60 60 62 62 61 60 60 59 57 55 54 53 54 55 56 56 52 54 55 57 58 60 62 62 63 64
55 55 55 55 55 55 55 55 56 57 58 59 60 56 35 40 54 60 58 58 61 62 62 62 62 60 60 56 57 54 51 52 53 55 54 53 53 53 57 58 59 60 62 62 64
55 55 54 54 55 55 54 55 57 57 58 60 60 52 39 49 60 59 59 59 60 61 61 61 62 60 58 58 55 52 53 50 51 53 53 52 51 53 57 56 57 59 60 62 63
54 54 54 54 54 54 54 55 57 58 59 59 47 37 43 59 52 55 58 58 59 59 60 60 61 59 54 53 53 54 51 50 49 53 52 52 52 53 57 56 56 57 59 60 61
54 54 54 54 54 53 54 55 58 56 55 54 48 41 41 47 53 54 58 59 59 58 57 55 57 55 53 52 49 48 48 49 49 51 52 52 51 52 56 55 55 55 57 57 58
54 54 54 54 53 53 50 43 28 32 35 35 38 41 39 47 55 57 58 57 55 55 54 55 50 50 50 53 53 52 52 50 50 52 52 50 51 51 55 55 55 55 56 56 56
54 53 53 53 52 52 50 23 28 31 27 32 30 33 38 38 50 53 58 55 55 53 55 50 49 53 53 53 53 52 52 50 50 52 52 51 51 53 54 55 55 55 56 56 55
54 53 53 52 52 49 35 26 33 33 27 26 31 28 31 37 49 51 55 57 54 52 52 49 49 53 53 52 50 49 49 49 48 50 54 53 50 51 55 56 56 56 57 57 56
53 53 53 52 44 36 30 31 37 33 33 26 30 32 37 39 48 54 56 55 55 51 51 48 53 53 51 49 51 46 52 50 50 49 46 53 43 51 53 56 57 57 57 57 57
53 52 52 51 40 41 37 38 33 28 35 28 32 40 43 48 51 54 59 53 50 52 53 52 51 52 49 50 51 50 51 50 50 50 50 48 48 47 54 51 55 57 57 57 58
53 52 52 49 49 38 40 33 25 23 25 27 43 46 44 50 52 55 55 56 55 53 54 52 54 53 51 52 52 53 51 50 50 51 47 48 48 40 44 49 50 54 58 60 61
52 52 51 47 33 44 34 26 20 19 22 30 39 47 46 49 50 52 52 53 50 49 46 51 52 53 54 51 53 53 51 42 39 45 39 50 49 42 48 50 54 55 56 58 62
51 51 52 49 47 44 30 26 22 17 22 30 43 47 44 49 49 50 51 50 52 50 49 47 38 52 53 52 50 53 52 41 33 23 25 50 41 27 52 54 57 59 60 62 63
51 49 44 40 45 45 32 23 22 21 17 17 39 43 43 32 45 46 50 48 50 52 48 47 45 48 50 49 49 47 46 43 37 36 35 32 40 35 51 51 56 58 58 61 62
48 43 43 42 39 30 30 28 24 20 19 18 32 35 38 30 29 29 38 46 47 51 52 49 44 44 44 47 44 43 43 33 33 28 23 22 30 24 34 46 53 56 57 59 63
48 39 40 34 31 31 21 24 23 23 23 16 15 18 29 17 19 23 23 34 26 39 50 49 46 41 34 40 31 38 36 34 26 26 19 18 18 33 40 49 51 52 58 60 62
43 32 43 31 29 31 26 26 31 26 23 19 19 20 20 20 21 22 23 26 28 33 42 41 41 39 23 20 20 24 25 24 23 24 23 24 24 37 49 49 55 54 58 63 63
44 40 44 31 28 32 32 29 32 31 31 22 23 23 24 25 25 28 30 30 30 22 24 26 21 19 21 19 22 23 26 26 24 25 29 25 24 38 46 48 52 55 60 62 63
45 33 39 38 35 37 38 35 33 35 35 38 34 31 30 33 36 33 32 32 32 29 51 34 19 24 17 23 25 28 27 28 27 27 27 26 29 34 34 36 41 55 60 62 63
49 44 43 31 37 41 39 37 36 35 36 38 38 34 34 34 35 34 35 34 34 45 35 29 29 27 26 25 23 26 27 28 29 29 28 27 30 32 36 43 50 52 60 62 62
49 48 48 48 47 41 39 38 35 35 36 34 37 37 37 36 36 35 36 37 36 35 35 31 34 31 30 29 28 26 28 29 30 31 31 31 32 39 53 56 56 58 59 60 61
52 52 49 46 43 39 39 36 33 36 36 36 35 37 37 38 39 38 37 36 36 36 35 34 35 35 29 31 31 29 31 30 31 32 31 31 35 51 53 58 58 58 58 59 61

GFSSW_sfc_dewp_336.txt.gz
Dewpoint
57 57 57 56 56 57 56 57 57 58 58 59 60 60 61 61 60 49 42 52 55 70 71 62 65 66 65 62 62 63 53 49 50 50 52 54 54 56 55 53 53 56 53 57 61
57 57 56 56 56 57 56 57 56 58 58 58 60 60 61 61 43 41 59 69 71 73 64 65 64 65 61 59 61 59 52 50 53 54 53 53 53 55 52 54 55 57 57 60 62
56 57 56 56 56 56 56 56 57 57 57 58 60 60 61 58 44 47 69 72 74 73 66 65 64 63 57 58 57 56 51 54 54 53 54 54 54 55 52 54 55 55 59 61 61
56 56 56 56 56 56 56 56 56 56 57 59 59 60 61 48 44 52 70 71 74 66 64 62 62 58 55 54 56 52 53 53 55 53 53 54 55 53 53 55 55 55 60 61 60
56 56 56 55 56 56 56 56 56 56 57 59 59 60 52 43 45 58 72 70 63 62 62 60 58 57 53 54 55 52 52 53 54 53 52 55 55 53 54 56 55 56 60 59 58
55 55 55 55 55 55 55 55 55 56 58 59 60 60 44 43 52 56 55 57 59 61 61 61 60 59 55 53 53 53 52 52 54 54 53 52 53 53 55 57 55 57 59 58 59
55 55 55 55 55 55 55 55 55 57 58 59 60 55 38 41 50 54 54 54 60 61 60 60 61 59 59 54 53 53 50 51 52 54 53 52 51 52 55 57 57 57 58 57 59
55 55 55 55 55 55 55 55 56 57 59 60 61 48 43 50 53 52 55 58 59 60 60 60 60 59 57 56 52 50 50 46 51 52 53 52 48 51 56 56 57 57 57 57 58
55 55 54 54 54 54 54 55 57 58 59 60 49 41 44 59 52 51 56 58 58 58 60 59 59 56 53 52 49 50 48 47 49 52 51 51 50 51 55 56 56 57 57 56 57
55 55 54 54 54 54 54 55 57 56 53 49 43 40 41 45 50 52 58 59 58 57 57 55 53 51 49 48 45 47 46 46 46 49 51 50 50 49 54 54 55 56 57 56 56
55 54 54 54 53 53 49 43 32 29 29 40 45 41 46 50 53 55 57 57 56 56 52 54 49 45 46 50 49 47 47 46 46 49 50 49 48 48 51 53 53 54 56 57 56
54 53 53 53 52 53 49 24 32 33 37 30 30 37 45 52 54 56 57 55 54 51 52 50 46 49 50 50 49 46 45 44 46 49 49 48 47 49 50 53 52 53 54 55 55
54 53 53 52 52 49 31 30 34 35 34 31 32 35 41 45 51 53 55 54 53 52 51 48 49 51 51 49 48 46 47 47 46 48 50 52 46 48 50 52 54 53 54 55 55
53 53 53 52 45 30 26 29 33 34 35 32 31 32 37 45 49 53 54 53 53 49 49 47 51 51 49 48 48 42 50 48 44 43 40 51 40 45 48 50 54 55 55 54 56
53 53 52 51 40 35 36 35 33 33 37 33 32 36 41 47 51 53 55 53 50 50 52 51 48 49 48 50 50 48 50 49 46 43 44 42 40 39 49 38 47 52 54 55 56
53 52 52 48 47 36 36 33 29 23 32 34 40 44 44 49 50 53 52 54 54 51 52 50 52 51 49 51 51 52 50 47 45 39 32 38 36 32 32 43 44 47 52 56 57
52 52 51 45 35 39 32 27 22 19 28 36 41 46 44 46 50 50 50 50 48 45 42 44 46 50 52 49 51 51 43 33 28 25 22 38 32 28 35 43 49 52 54 56 59
51 51 51 46 42 40 31 25 24 24 28 34 41 46 46 48 48 49 48 46 48 48 43 36 38 47 51 48 45 44 42 33 30 23 21 38 27 24 39 47 52 55 57 60 60
51 48 39 38 40 40 31 21 24 21 18 30 39 43 42 43 44 44 44 41 42 46 40 35 31 47 50 49 48 46 40 39 26 25 24 20 23 26 38 36 44 51 55 57 60
46 34 37 37 35 30 25 28 24 20 17 24 30 34 35 38 38 34 32 38 37 45 45 39 35 37 43 47 46 44 43 32 29 26 21 17 22 19 28 28 36 39 46 55 61
45 28 38 33 30 26 23 26 26 25 23 20 23 26 26 25 29 25 21 25 24 32 37 35 31 31 39 39 30 37 35 33 21 18 20 18 17 22 26 33 34 39 47 54 60
34 23 36 34 25 27 27 30 33 24 21 18 19 19 22 19 21 19 19 25 27 25 26 34 26 27 24 23 22 23 22 21 19 24 21 22 20 27 31 33 35 34 52 58 61
35 31 38 32 20 21 34 30 33 26 24 20 20 22 24 23 24 22 24 29 28 22 25 28 24 19 19 19 21 22 24 24 21 21 25 23 23 27 30 33 35 39 52 62 64
38 23 28 31 33 33 36 33 31 33 30 32 28 27 25 25 29 26 25 28 31 24 48 36 19 21 16 21 24 23 22 25 25 23 24 22 26 27 30 33 39 49 51 62 63
48 34 38 20 30 36 39 37 31 29 33 35 33 30 28 29 28 28 28 28 31 44 35 28 27 28 25 23 23 23 23 23 25 27 26 27 26 29 34 42 50 54 57 62 62
48 44 43 40 42 39 38 38 33 34 35 32 33 31 31 33 34 33 33 34 34 35 34 31 33 34 31 26 26 26 26 26 25 25 25 27 29 32 44 45 50 57 58 59 62
53 53 50 44 38 37 33 37 35 37 37 36 35 35 35 35 38 38 37 36 36 38 37 35 35 33 31 27 27 26 22 23 26 27 27 28 32 37 43 50 56 58 58 58 59